Regional Weather Roundup
Issued by NWS Mt. Holly, NJ

Home | Current Version | Previous Version | Text Only | Print | Product List | Glossary On
Versions: 1 2 3 4 5 6 7 8 9 10 11 12 13 14 15 16 17 18 19 20 21 22 23 24 25 26 27 28 29 30 31 32 33 34 35 36 37 38 39 40 41 42 43 44 45 46 47 48 49 50
000
ASUS41 KPHI 021311
RWRPHI

REGIONAL WEATHER ROUNDUP
NATIONAL WEATHER SERVICE MOUNT HOLLY NJ
800 AM EST MON MAR 02 2015

NOTE:  "FAIR" INDICATES FEW OR NO CLOUDS BELOW 12,000 FEET WITH NO
SIGNIFICANT WEATHER AND/OR OBSTRUCTIONS TO VISIBILITY.

 * = STATION DOES NOT REPORT PRECIPITATION (E.G. RAIN, SNOW, ETC.)
        OR FOG.

NJZ015>026-021400-
SOUTHERN NEW JERSEY

CITY           SKY/WX    TMP DP  RH WIND       PRES   REMARKS
POMONA         CLOUDY    33  31  92 W7        30.10R FOG     WCI  27
RIO GRANDE*    CLOUDY    32  28  86 CALM      30.13R
MILLVILLE      CLOUDY    33  31  92 W8G20     30.12R FOG     WCI  26
WRIGHTSTOWN    CLOUDY    32  32  99 CALM      30.08R
MOUNT HOLLY    CLOUDY    33  30  88 W6        30.12R FOG     WCI  28
TRENTON        CLOUDY    33  29  85 W5        30.11R FOG     WCI  29

$$
NJZ001>014-021400-
NORTHERN NEW JERSEY

CITY           SKY/WX    TMP DP  RH WIND       PRES   REMARKS
SUSSEX         LGT SNOW  29  23  78 W3        30.09R
ANDOVER*         N/A     26  24  92 CALM      30.09R
MORRISTOWN     PTSUNNY   34  28  80 N10G20    30.09R WCI  26
NEWARK         CLOUDY    34  29  82 NW12G20   30.09R WCI  25
TETERBORO      CLOUDY    31  26  82 CALM      30.09R
CALDWELL       CLOUDY    32  25  75 NW9       30.10R WCI  24
SOMERVILLE     CLOUDY    32  27  81 VRB5      30.10R HAZE    WCI  27
ALLAIRE*       PTSUNNY   34  27  75 CALM      30.07R
TOMS RIVER*    CLOUDY    34  30  86 CALM      30.08R

$$
PAZ043-044-047-054-055-060>062-066>071-021400-
EASTERN PENNSYLVANIA

CITY           SKY/WX    TMP DP  RH WIND       PRES   REMARKS
PHILADELPHIA   CLOUDY    33  31  92 W7        30.14R FOG     WCI  27
NORTH PHILA    CLOUDY    36  29  75 NW12      30.14R HAZE    WCI  28
BLUE BELL      CLOUDY    32  32 100 NW3       30.12R
DOYLESTOWN     CLOUDY    32  30  92 W12       30.11R WCI  23
QUAKERTOWN*    PTSUNNY   32  28  86 NW5       30.11R WCI  27
POTTSTOWN      CLOUDY    30  29  96 W5        30.14R FOG     WCI  25
LANCASTER      CLOUDY    29  28  96 W6        30.13R FOG     WCI  23
COATESVILLE    CLOUDY    32  32 100 NW9       30.13R FOG     WCI  24
READING        CLOUDY    30  26  85 NW5       30.13R FOG     WCI  25
ALLENTOWN      LGT SNOW  30  27  86 W7        30.12R WCI  23
MOUNT POCONO   SNOW      24  20  84 NW13G21   30.01R VSB 1/2 WCI  12
HAZLETON       LGT SNOW  27  27 100 W6G16     30.09R WCI  20
WILKES BARRE   LGT SNOW  27  20  75 N17       30.11R WCI  14

$$
DEZALL-MDZ008-012-015-019-020-021400-
DELAWARE AND EASTERN MARYLAND

CITY           SKY/WX    TMP DP  RH WIND       PRES   REMARKS
WILMINGTON     FOG       32  31  96 W7        30.15R VSB 1   WCI  26
DOVER          CLOUDY    33  33 100 CALM      30.14R FOG
GEORGETOWN     CLOUDY    33  31  92 VRB5      30.14R FOG     WCI  29
EASTON         CLOUDY    34  34 100 CALM      30.17R FOG
ABERDEEN       PTSUNNY   32  30  93 CALM      30.15  FOG
PATUXENT       CLOUDY    33  32  96 W6        30.15R FOG     WCI  28
OCEAN CITY     CLOUDY    33  32  96 NW6       30.13R FOG     WCI  28
WALLOPS ISLAND CLOUDY    32  32 100 SW6       30.15R FOG     WCI  26
SALISBURY      CLOUDY    35  32  88 W3        30.14R FOG

$$
PAZ001-021-NYZ056-072-MDZ011-DCZ001-021400-
OTHER NEARBY LOCATIONS

CITY           SKY/WX    TMP DP  RH WIND       PRES   REMARKS
HARRISBURG     PTSUNNY   30  26  85 NW6       30.16R FOG     WCI  24
STATE COLLEGE  LGT SNOW  25  16  68 NW23G35   30.21R WCI  10
WILLIAMSPORT   CLOUDY    30  16  56 W17G26    30.19R WCI  18
BINGHAMTON     LGT SNOW  19  15  84 W10G20    30.07R FOG     WCI   7
NEW YORK CITY  CLOUDY    33  25  72 VRB6      30.10R HAZE    WCI  28
BALTIMORE      PTSUNNY   33  31  92 W3        30.16R FOG
WASHINGTON DC  CLOUDY    35  31  85 N5        30.19R FOG     WCI  31

$$



USA.gov is the U.S. government's official web portal to all federal, state and local government web resources and services.